MIDAS 3 DEB, 196

Orbit data source: Space-Track

MIDAS 3 DEB, 196 is space debris in LEO originally from a launch on Wed, 12 Jul 1961 UTC launched from the Air Force Western Test Range (AFWTR). Debris objects in space refer to the collection of defunct objects orbiting the Earth. Examples of debris include non-operational satellites, rocket bodies, and fragments generated from explosions, collisions, or faulty payload assembly.

Loading next visibility...
Identifier
196, 1961-018D
Orbit
LEO
Country
Flag of USUS
Related business
Manufacturer
Unknown
Mission
Spacecraft
Bus & Motor
Unknown
Mass
~10 kg wet, ~10 kg dry
Launch date (UTC)
1961-07-12 (64 years ago)
Launch vehicle
Unknown
Launch site
Air Force Western Test Range (AFWTR)
Object type
Payload
Rocket body
Debris
Shape & HBR
Unknown shape, 1.1 m
Radar Cross Section
Medium (>0.1 m² and <1 m²)

Expand to show TLE details & history
Last TLE update: 9 hours ago

TLE from 9 hours ago
0 MIDAS 3 DEB
1   196U 61018D   25299.67285747  .00000018  00000-0  60936-2 0  9990
2   196  91.1131 193.4012 0095939 216.5542 142.8753  8.89679833 87886
Epoch: 2025-10-26T16:08Z
TLE epoch observation values (Epoch: 2025-10-26T16:08:54.885Z)
Latitude
-0.00006°
Longitude
-84.11317°
Altitude
3,537.822 km
Speed
6.316 km/s
True Right ascension
12h 53m 36s
True Declination
0° 00' 00"
Sunlit
Object was in daylight at epoch
Visualization orbit readout
Latitude
Unknown
Longitude
Unknown
Altitude
Unknown
Speed
Unknown
Apparent Right ascension
Unknown
Apparent Declination
Unknown
Sunlit
N/A
Visualization observer readout
Local Sidereal Time
20:36:29
Azimuth
Unknown
Elevation
Unknown
Doppler factor
Unknown
Orbital elements
Apogee altitude
3,552.131 km
Perigee altitude
3,363.401 km
Semi-major axis
9,835.903 km
Eccentricity
0.00959
Inclination
91.1131°
RAAN
193.4012°
Arg. of periapsis
216.5542°
True anomaly
143.53253°
Mean anomaly
142.8753°
Eccentric anomaly
143.20454°
Mean motion
2.22496 °/min
Orbital period
161.8 mins
BSTAR
0.0060936
Loading maneuver chart data...
Computing Atmospheric mass density...
Loading historical data...
Loading historical data...
Loading historical data...
Loading historical data...
Loading historical data...
Loading historical data...
Loading historical data...
Other satellites on launch #18 in the year 1961 (1961-07-12 UTC)

Documentation

Showing up to 5 results
|